Regional Weather Roundup
Issued by NWS

Home | Current Version | Previous Version | Graphics & Text | Print | Product List | Glossary On
Versions: 1 2 3 4 5 6 7 8 9 10 11 12 13 14 15 16 17 18 19 20 21 22 23 24 25 26 27 28 29 30 31 32 33 34 35 36 37 38 39 40 41 42 43 44 45 46 47 48 49 50
574
ASUS45 KSLC 210010
RWRUT

UTAH REGIONAL WEATHER ROUNDUP
NATIONAL WEATHER SERVICE SALT LAKE CITY UT
600 PM MDT SUN AUG 20 2017

UTZ001>011-023>025-210100-

NORTHERN UTAH

CITY           SKY/WX    TMP DP  RH WIND       PRES   REMARKS
BRIGHAM CITY   SUNNY     91  27  10 SW5       29.97F
HILL AFB       SUNNY     89  37  16 W6        30.01F
LOGAN          SUNNY     90  36  14 VRB3      29.98F
OGDEN          SUNNY     91  38  15 W7        29.97F
SALT LAKE CITY MOSUNNY   94  39  14 N9        29.95F HX  90
TOOELE VALLEY  SUNNY     88  45  22 N12       29.97S
WENDOVER       SUNNY     91  35  13 SE9       29.95F
HEBER CITY     MOSUNNY   88  30  12 W3        30.05S
WEST JORDAN    SUNNY     91  56  30 N6        29.99F

$$

UTZ011>015-024>027-210100-

CENTRAL/NORTHEAST UTAH

CITY           SKY/WX    TMP DP  RH WIND       PRES   REMARKS
PROVO AIRPORT  MOSUNNY   94  37  13 S6        29.97F
MOAB/CANYONLAN MOSUNNY   97  30   9 W16       29.93F HX  91
DELTA          PTSUNNY   88  34  14 S20G29    29.99F
PRICE          CLOUDY    83  35  18 NW8       30.11S
ROOSEVELT      MOSUNNY   86  36  16 SW5       30.06F
VERNAL         SUNNY     89  34  14 VRB5      30.04F

$$

UTZ013>016-019>022-027-210100-

SOUTHERN UTAH

CITY           SKY/WX    TMP DP  RH WIND       PRES   REMARKS
BRYCE CANYON   CLOUDY    67  47  48 N10       30.28S
CEDAR CITY     MOSUNNY   86  41  20 SW14G22   30.07F THUNDER
MILFORD        PTSUNNY   89  37  16 W15       30.01S
ST GEORGE      PTCLDY    97  45  16 CALM      29.89R HX  93
HANKSVILLE     MOSUNNY   90  32  12 N7        29.98S
BLANDING       CLOUDY    82  35  18 W10G20    30.17S

$$

REGIONAL REPORTS     COLORADO/ARIZONA

CITY           SKY/WX    TMP DP  RH WIND       PRES   REMARKS
CRAIG, CO      CLOUDY    78  36  21 SE9       30.12R
GRAND JUNCTION MOSUNNY   93  31  11 W13       29.96F
RIFLE, CO      CLOUDY    92  28  10 N3        30.04F
MONTROSE, CO   CLOUDY    86  32  14 N3        30.08S
CORTEZ, CO     CLOUDY    70  52  52 SE12      30.16F
COLORADO CITY    N/A     82  48  30 S18G24    30.10R
PAGE, AZ       CLOUDY    90  39  16 SW9G22    29.96S
GRAND CANYON     N/A     66  47  50 N8        30.24F
KINGMAN, AZ    MOSUNNY   94  45  18 SW12G24   29.95F HX  90
FLAGSTAFF, AZ  CLOUDY    55  52  89 VRB3      30.27F

$$

REGIONAL REPORTS    NEVADA/IDAHO/WYOMING

CITY           SKY/WX    TMP DP  RH WIND       PRES   REMARKS
LAS VEGAS, NV  MOSUNNY  100  41  13 SE8       29.81F HX  95
ELY, NY        SUNNY     86  21   9 CALM      30.09F
ELKO, NV       MOSUNNY   92  26   9 SW5       30.00S
POCATELLO, ID  SUNNY     85  32  15 W13       30.02F
BURLEY, ID     SUNNY     80  41  24 W12       30.01S
FORT BRIDGER,  LGT RAIN  76  33  21 NE3       30.22S
EVANSTON, WY   CLOUDY    80  30  16 NW17G26   30.19S
ROCK SPRINGS,  CLOUDY    72  35  25 SW7       30.18F
KEMMERER, WY     N/A     79  28  15 W13G22    30.20S

$$




USA.gov is the U.S. government's official web portal to all federal, state and local government web resources and services.